Showing default

GOES-U, 60133

Orbit data source: Space-Track

GOES-U, 60133 is a payload satellite owned by NOAA (US) in GEO that was launched on Tue, 25 Jun 2024 UTC via an FALCON HEAVY launch vehicle from the Air Force Eastern Test Range (AFETR). Payloads include a variety of satellites, spacecraft, and rockets equipped with specific instruments for various scientific and technological missions. These include communications satellites like Starlink; space stations such as the ISS; scientific satellites like the Hubble; Earth observation satellites from companies like Planet Labs, Umbra, and HawkEye 360; GPS; miniature CubeSats for education and research; and military/defense satellites.

Loading next visibility...
GOES-U details
Identifier
60133, 2024-119A
Orbit
GEO
Last TLE update19 hours ago
Origin
Flag of USNOAA (US)
ManufacturerLMCSS
MissionOperational Civil Weather
Bus & MotorA2100, LEROS-1C
Mass~5,000 kg wet, 2,925 kg dry
Launch date (UTC)
2024-06-25 (5 months ago)
Launch vehicle
FALCON HEAVY
Launch site
Air Force Eastern Test Range (AFETR)
Object type
Payload
Rocket body
Debris
Shape & HBRBox + 1 Pan + 1 Rod, 12 m
Radar Cross Section37.561 m²

Expand to show TLE details & history

TLE from 19 hours ago
0 GOES-U
1 60133U 24119A   24325.47966274 -.00000181  00000-0  00000-0 0  9992
2 60133   0.0082  63.7057 0000743 229.7335 209.7918  1.00272672  1215
Epoch: 2024-11-20T11:30Z
Definitive object data (Epoch: 2024-11-20T11:30:42.86Z)
Latitude0.00048°
Longitude-89.44352°
Altitude35,788.546 km
Speed3.075 km/s
True Right ascension09h 32m 50s
True Declination0° 00' 02"
Sunlit
Object was in daylight at TLE epoch
Visualization TLE readout
Latitude0.0007°
Longitude-164.02166°
Altitude35,788.106 km
Speed3.075 km/s
Apparent Right ascension04h 42m 37s
Apparent Declination-6° 11' 57"
Sunlit
Object is in daylight
Visualization observer readout
Local Sidereal Time03:31:46
Azimuth156.343° SSE
Elevation41.076°
Doppler factor1
Orbital elements
Apogee altitude35,790.55 km
Perigee altitude35,784.284 km
Semi-major axis42,165.554 km
Eccentricity0.0000743
Inclination0.0082°
RAAN63.7057°
Arg. of periapsis229.7335°
True anomaly209.78757°
Mean anomaly209.7918°
Eccentric anomaly209.78969°
Mean motion0.25067 °/min
BSTARUnknown
Orbital period1436.14 mins
Loading historical data...
60133 neighbors
Authenticating...
Loading maneuver chart data...
Loading historical data...
Loading historical data...
Loading historical data...
Loading historical data...
Loading historical data...
Loading historical data...
Loading historical data...
Other satellites on launch #119 in the year 2024 (2024-06-25 UTC)

GOES-U Visibility forecast

Observer location: undefined°, undefined

Span
Click to sort rows by Start time (UTC) header in descending order
Start Az.
Max El. time (UTC)
Max El. Az.
Max El.
End time (UTC)
End Az.
1440 mins2024-11-21 06:29:13.854Z156.352° SSE2024-11-21 15:22:13.854Z156.372° SSE33.301°2024-11-22 06:29:13.854Z156.348° SSE
|